Location: ??????
(56.0120°N, 39.1740°E)
Time: 14:38:44
(UTC+00:00)

Cosmos 1606 Rocket - Pass Details

Date: 14 April 2026
Orbit: 595 x 625 km, 82.5° (Epoch: 17 May)

Event Time Altitude Azimuth Distance (km) Brightness Sun altitude
Exits shadow 23:37:13 42° 214° (SW) 899 3.9 -18.7°
Maximum altitude 23:38:37 70° 284° (WNW) 671 3.6 -18.6°
Drops below altitude 10° 23:43:03 10° 9° (N) 2,006 7.1 -18.2°
Sets 23:45:18 0° 12° (NNE) 2,913 8.2 -18.0°
